Stations météo

réclame
Mon MeteoGroup
Katterjakk A, Suède (2019): Température de l'air & dewpoint: 14.10.2018 19:00:00 - 20.10.2018 19:00:00 (CEST)Katterjakk A, Suède (2019): Vitesse du vent & gusts: 14.10.2018 19:00:00 - 20.10.2018 19:00:00 (CEST)Katterjakk A, Suède (2019): Direction du vent: 14.10.2018 19:00:00 - 20.10.2018 19:00:00 (CEST)Katterjakk A, Suède (2019): reduced air pressure: 14.10.2018 19:00:00 - 20.10.2018 19:00:00 (CEST)Katterjakk A, Suède (2019): visibility: 14.10.2018 19:00:00 - 20.10.2018 19:00:00 (CEST)Katterjakk A, Suède (2019): Quantités de précipitations: 14.10.2018 19:00:00 - 20.10.2018 19:00:00 (CEST)
Date & Time tt [°C] td [°C] ff [km/h] ff [knt] fx [km/h] fx [knt] dd ppp [hPa] vv [km] rr [mm]
20.10.2018 19:00:00 1,8 1,6 6 4 11 6 N 1011,8 3,7 0,0
20.10.2018 18:00:00 1,7 1,4 5 3 9 5 SW 1012,7 50 0,0
20.10.2018 17:00:00 1,8 1,4 5 3 9 5 N 1013,0 39 0,0
20.10.2018 16:00:00 1,8 1,5 5 3 9 5 WSW 1013,2 50 0,0
20.10.2018 15:00:00 2,3 1,9 6 4 9 5 SSW 1013,8 39 0,0
20.10.2018 14:00:00 3,0 2,6 0 0 7 4 N 1013,5 50 0,0
20.10.2018 13:00:00 2,8 2,4 4 2 7 4 ENE 1013,3 43 0,0
20.10.2018 12:00:00 2,7 2,3 0 0 5 3 N 1013,5 50 0,2
20.10.2018 11:00:00 2,2 2,1 0 0 5 3 N 1013,8 16 0,5
20.10.2018 10:00:00 1,9 1,8 0 0 6 4 N 1013,7 4,3 0,1
20.10.2018 09:00:00 1,3 1,0 3 1 6 4 S 1013,6 50 0,0
20.10.2018 08:00:00 1,7 1,4 0 0 6 4 N 1013,6 36 0,1
20.10.2018 07:00:00 1,6 1,2 3 2 9 5 S 1013,9 9 0,2
20.10.2018 06:00:00 1,5 0,9 7 4 9 5 S 1013,9 36 0,1
20.10.2018 05:00:00 1,3 0,9 4 2 8 4 SW 1014,0 50 0,0
20.10.2018 04:00:00 1,5 1,2 2 1 5 3 SW 1014,3 16 0,1
20.10.2018 03:00:00 1,7 1,4 3 1 7 4 W 1014,4 14 0,1
20.10.2018 02:00:00 2,0 1,4 2 1 10 5 WSW 1014,5 12 0,1
20.10.2018 01:00:00 2,4 1,4 3 2 10 5 WSW 1014,5 17 0,1
20.10.2018 00:00:00 2,3 1,1 6 3 14 8 S 1014,5 50 0,0
19.10.2018 23:00:00 2,7 1,1 3 2 27 15 SE 1014,4 50 0,0
19.10.2018 22:00:00 2,3 1,1 9 5 27 15 ESE 1014,6 50 0,0
19.10.2018 21:00:00 1,7 0,7 8 5 18 10 SW 1014,7 50 0,0
19.10.2018 20:00:00 3,4 2,0 13 7 19 11 WNW 1014,1 50 0,0
19.10.2018 19:00:00 3,5 2,6 6 4 26 14 WNW 1014,2 33 0,0
19.10.2018 18:00:00 3,7 3,0 14 8 32 17 WNW 1013,9 9 0,0
19.10.2018 17:00:00 4,1 3,1 13 7 32 17 W 1014,0 4,2 0,3
19.10.2018 16:00:00 4,2 2,9 18 10 34 18 W 1014,0 9 0,3
19.10.2018 15:00:00 4,4 2,9 16 9 34 18 W 1013,3 4,8 0,4
19.10.2018 14:00:00 4,4 3,4 21 11 41 22 W 1012,7 7 0,2
19.10.2018 13:00:00 4,5 3,0 23 12 41 22 W 1012,0 15 0,2
19.10.2018 12:00:00 4,4 2,9 18 10 45 25 W 1011,4 10 0,1
19.10.2018 11:00:00 4,3 2,8 24 13 45 25 W 1010,8 4,4 0,6
19.10.2018 10:00:00 4,4 3,4 24 13 43 23 WNW 1009,8 35 0,8
19.10.2018 09:00:00 4,3 3,6 21 11 41 22 WNW 1009,1 3,0 0,7
19.10.2018 08:00:00 4,1 3,5 21 11 50 27 W 1008,5 1,3 0,5
19.10.2018 07:00:00 4,1 3,5 24 13 51 28 W 1007,6 3,1 0,1
19.10.2018 06:00:00 4,3 3,3 32 18 53 29 WNW 1006,8 4,4 0,8
19.10.2018 05:00:00 4,5 3,0 33 18 59 32 W 1006,0 14 0,2
19.10.2018 04:00:00 4,5 2,8 33 18 59 32 W 1004,8 45 0,0
19.10.2018 03:00:00 4,9 2,8 32 17 60 32 W 1004,0 50 0,1
19.10.2018 02:00:00 4,8 2,8 29 16 60 32 W 1002,7 8 2,0
19.10.2018 01:00:00 4,5 2,8 24 13 57 31 W 1001,8 12 0,7
19.10.2018 00:00:00 4,7 2,7 36 19 54 29 W 1000,4 5 2,6
18.10.2018 23:00:00 4,1 2,6 24 13 41 22 WSW 1000,0 3,8 5,2
18.10.2018 22:00:00 3,2 2,0 14 8 25 13 WSW 999,4 3,2 2,5
18.10.2018 21:00:00 1,8 1,4 0 0 23 12 N 999,1 10 0,8
18.10.2018 20:00:00 2,4 1,5 5 3 25 14 NW 998,6 17 0,7
18.10.2018 19:00:00 3,7 1,2 17 9 34 18 SSW 998,6 7 1,2
18.10.2018 18:00:00 4,1 0,8 15 8 52 28 SW 998,6 13 0,1
18.10.2018 17:00:00 4,5 -0,1 26 14 52 28 SSW 998,5 40 0,0
18.10.2018 16:00:00 4,5 -0,5 35 19 49 26 S 998,2 50 0,1
18.10.2018 15:00:00 5,2 -1,5 29 16 49 26 S 998,6 50 0,0
18.10.2018 14:00:00 4,9 -1,3 35 19 48 26 S 999,2 50 0,0
18.10.2018 13:00:00 4,8 -1,9 31 17 46 25 SSW 999,8 50 0,0
18.10.2018 12:00:00 5,1 -3,4 26 14 42 23 SSW 1000,3 50 0,0
18.10.2018 11:00:00 5,2 -2,4 25 14 42 23 SSW 1000,7 50 0,0
18.10.2018 10:00:00 3,1 -0,7 4 2 27 15 WSW 1001,5 48 0,0
18.10.2018 09:00:00 3,7 -1,7 10 5 27 15 WSW 1001,3 50 0,0
18.10.2018 08:00:00 1,4 1,0 6 3 18 10 NNE 1001,7 48 0,0
18.10.2018 07:00:00 1,7 1,6 4 2 11 6 W 1002,1 50 0,0
18.10.2018 06:00:00 1,9 1,6 4 2 10 5 W 1002,4 50 0,0
18.10.2018 05:00:00 2,1 1,8 2 1 18 10 WNW 1002,7 31 0,0
18.10.2018 04:00:00 2,9 1,9 2 1 18 10 N 1002,6 50 0,1
18.10.2018 03:00:00 2,6 1,9 7 4 21 11 WNW 1003,0 30 0,0
18.10.2018 02:00:00 4,0 2,0 13 7 21 11 W 1002,8 50 0,7
18.10.2018 01:00:00 1,8 1,7 6 4 11 6 NNW 1003,3 36 0,0
18.10.2018 00:00:00 1,9 1,8 7 4 10 6 SW 1003,4 50 0,0
17.10.2018 23:00:00 2,1 1,8 6 3 10 5 NNW 1003,6 43 0,1
17.10.2018 22:00:00 1,9 1,6 0 0 11 6 N 1003,7 50 0,0
17.10.2018 21:00:00 2,1 1,8 3 2 11 6 NE 1004,0 50 0,0
17.10.2018 20:00:00 2,3 2,0 3 2 8 5 WNW 1004,1 50 0,1
17.10.2018 19:00:00 - - - - 8 5 - - - -
17.10.2018 18:00:00 1,8 1,2 3 2 8 5 W 1004,7 50 0,1
17.10.2018 17:00:00 2,2 1,2 3 2 8 5 S 1004,9 11 0,0
17.10.2018 16:00:00 2,6 1,1 3 2 13 7 WSW 1004,7 50 0,0
17.10.2018 15:00:00 3,5 1,5 3 2 13 7 W 1005,1 50 0,0
17.10.2018 14:00:00 3,6 1,3 5 3 10 5 ENE 1005,5 50 0,0
17.10.2018 13:00:00 3,1 0,5 3 2 8 4 SE 1006,0 50 0,0
17.10.2018 12:00:00 2,8 0,2 3 2 8 4 NNE 1006,4 50 0,0
17.10.2018 11:00:00 2,5 0,6 3 2 9 5 N 1006,8 50 0,0
17.10.2018 10:00:00 1,6 -0,2 4 2 9 5 S 1007,1 50 0,0
17.10.2018 09:00:00 1,8 0,2 4 2 8 4 NW 1007,3 50 0,0
17.10.2018 08:00:00 1,8 0,0 3 2 8 4 NW 1007,2 50 0,0
17.10.2018 07:00:00 1,9 0,0 2 1 10 5 NW 1008,1 50 0,0
17.10.2018 06:00:00 1,9 0,3 4 2 11 6 NNW 1008,6 50 0,0
17.10.2018 05:00:00 1,7 0,7 3 2 11 6 NW 1009,3 50 0,0
17.10.2018 04:00:00 1,9 0,4 3 1 9 5 NNW 1010,2 50 0,0
17.10.2018 03:00:00 1,0 0,6 4 2 14 8 WSW 1011,0 45 0,0
17.10.2018 02:00:00 1,5 0,9 4 2 14 8 W 1012,0 46 0,0
17.10.2018 01:00:00 1,1 0,4 3 2 14 8 SW 1013,0 41 0,0
17.10.2018 00:00:00 1,9 0,9 4 2 9 5 NNW 1013,1 46 0,0
16.10.2018 23:00:00 1,5 0,9 4 2 9 5 SW 1013,8 40 0,0
16.10.2018 22:00:00 2,4 0,6 4 2 10 5 SW 1013,9 49 0,0
16.10.2018 21:00:00 2,2 0,7 2 1 18 10 SW 1014,4 42 0,0
16.10.2018 20:00:00 2,8 0,2 6 4 21 12 ESE 1013,8 48 0,0
16.10.2018 19:00:00 2,6 0,0 13 7 34 19 W 1013,7 50 0,0
16.10.2018 18:00:00 3,5 -0,2 15 8 34 19 SW 1013,4 50 0,0
16.10.2018 17:00:00 3,6 0,1 21 11 31 17 WSW 1013,1 50 0,0
16.10.2018 16:00:00 3,4 1,3 22 12 37 20 W 1012,7 24 0,6
16.10.2018 15:00:00 3,2 1,6 18 10 37 20 WSW 1012,3 5 1,1
16.10.2018 14:00:00 3,4 1,6 23 12 33 18 SW 1011,6 6 0,9
16.10.2018 13:00:00 3,7 1,1 15 8 31 17 W 1011,0 10 0,2
16.10.2018 12:00:00 3,3 1,3 17 9 31 17 WSW 1010,4 7 0,7
16.10.2018 11:00:00 3,9 0,6 15 8 27 15 SW 1009,5 45 0,0
16.10.2018 10:00:00 3,6 0,5 11 6 36 19 W 1009,1 16 0,1
16.10.2018 09:00:00 3,3 0,2 22 12 36 19 W 1008,6 5 0,1
16.10.2018 08:00:00 2,8 0,2 9 5 35 19 N 1008,0 50 0,0
16.10.2018 07:00:00 4,7 -1,5 11 6 43 23 WSW 1007,2 50 0,0
16.10.2018 06:00:00 4,8 -1,2 14 7 43 23 SW 1007,5 50 0,0
16.10.2018 05:00:00 4,9 -1,8 30 16 40 21 SSW 1007,2 50 0,0
16.10.2018 04:00:00 4,4 -2,5 24 13 34 18 SSW 1007,6 50 0,0
16.10.2018 03:00:00 3,9 -2,7 18 10 28 15 SSW 1008,2 50 0,0
16.10.2018 02:00:00 3,9 -1,9 12 6 28 15 WSW 1008,8 50 0,0
16.10.2018 01:00:00 1,6 0,7 6 3 13 7 N 1009,5 46 0,0
16.10.2018 00:00:00 1,9 0,1 4 2 16 8 SW 1010,0 50 0,0
15.10.2018 23:00:00 2,1 -0,8 8 4 16 8 SSW 1010,4 50 0,0
15.10.2018 22:00:00 2,1 0,9 2 1 10 6 NNE 1010,6 50 0,0
15.10.2018 21:00:00 2,0 1,0 6 3 11 6 N 1010,8 50 0,0
15.10.2018 20:00:00 1,8 0,8 5 3 11 6 NNE 1010,8 41 0,0
15.10.2018 19:00:00 1,6 0,4 6 3 11 6 WSW 1010,9 50 0,0
15.10.2018 18:00:00 2,2 0,7 4 2 10 5 SSE 1011,1 50 0,0
15.10.2018 17:00:00 3,4 0,8 0 0 13 7 N 1011,1 50 0,0
15.10.2018 16:00:00 3,7 0,6 4 2 17 9 W 1010,5 50 0,0
15.10.2018 15:00:00 4,4 0,5 8 5 24 13 WSW 1010,4 50 0,0
15.10.2018 14:00:00 4,3 0,8 13 7 24 13 W 1010,7 35 0,0
15.10.2018 13:00:00 4,2 0,9 12 7 27 14 W 1010,0 50 0,0
15.10.2018 12:00:00 4,0 0,5 16 9 28 15 W 1009,4 47 0,0
15.10.2018 11:00:00 3,9 1,3 18 10 29 15 WSW 1008,5 45 0,0
15.10.2018 10:00:00 3,5 1,4 18 10 29 15 WSW 1007,8 50 0,0
15.10.2018 09:00:00 2,8 1,8 14 7 28 15 W 1007,1 50 0,6
15.10.2018 08:00:00 2,7 1,8 19 10 36 19 W 1006,6 10 0,9
15.10.2018 07:00:00 2,5 1,2 19 11 36 19 WNW 1006,1 7 0,9
15.10.2018 06:00:00 2,6 1,4 19 10 36 19 WNW 1005,1 8 1,8
15.10.2018 05:00:00 3,8 3,1 13 7 31 17 WNW 1003,2 3,6 0,0
15.10.2018 04:00:00 4,9 4,0 13 7 34 18 W 1001,4 7 0,0
15.10.2018 03:00:00 5,6 4,7 16 9 34 18 W 999,9 7 0,0
15.10.2018 02:00:00 7,2 6,6 19 10 31 17 WNW 998,6 6 0,0
15.10.2018 01:00:00 6,3 6,2 8 4 14 8 WSW 998,5 4,5 0,0
15.10.2018 00:00:00 6,5 6,4 6 3 14 8 SSW 998,5 33 0,0
14.10.2018 23:00:00 7,1 7,0 5 3 30 16 NW 997,9 0,3 0,0
14.10.2018 22:00:00 8,2 6,0 10 5 30 16 W 997,4 50 0,0
14.10.2018 21:00:00 7,2 5,8 13 7 23 12 SW 998,1 42 0,0
14.10.2018 20:00:00 7,9 6,7 16 8 21 11 WSW 998,6 12 0,0
14.10.2018 19:00:00 6,7 6,0 3 2 14 8 WSW 998,9 10 0,0

tt = Température de l'air
td = dewpoint
ff = Vitesse du vent
fx = gusts
dd = Direction du vent
ppp = reduced air pressure
vv = visibility
rr = Quantités de précipitations

stations d'obs. à proximité